Year,Month,Day,Hour,Minute,Value (Times are PST for windgust in km/hr)
2012,01,27,00,20,3.20
2012,01,27,00,21,1.60
2012,01,27,00,34,1.60
2012,01,27,00,35,1.60
2012,01,27,00,36,1.60
2012,01,27,00,38,3.20
2012,01,27,00,39,1.60
2012,01,27,00,42,1.60
2012,01,27,00,43,1.60
2012,01,27,00,46,1.60
2012,01,27,00,52,1.60
2012,01,27,00,56,1.60
2012,01,27,00,59,1.60
2012,01,27,01,00,1.60
2012,01,27,01,02,1.60
2012,01,27,01,07,1.60
2012,01,27,01,14,1.60
2012,01,27,01,24,1.60
2012,01,27,01,28,1.60
2012,01,27,01,37,3.20
2012,01,27,01,38,3.20
2012,01,27,01,40,3.20
2012,01,27,01,41,1.60
2012,01,27,01,48,1.60
2012,01,27,02,04,1.60
2012,01,27,02,07,3.20
2012,01,27,02,08,1.60
2012,01,27,02,59,1.60
2012,01,27,03,00,1.60
2012,01,27,03,04,3.20
2012,01,27,03,12,1.60
2012,01,27,03,14,1.60
2012,01,27,03,26,1.60
2012,01,27,03,42,1.60
2012,01,27,03,43,1.60
2012,01,27,03,44,1.60
2012,01,27,03,46,1.60
2012,01,27,04,38,1.60
2012,01,27,04,39,1.60
2012,01,27,04,40,4.80
2012,01,27,04,56,1.60
2012,01,27,05,02,1.60
2012,01,27,05,20,1.60
2012,01,27,05,22,1.60
2012,01,27,05,44,1.60
2012,01,27,05,45,1.60
2012,01,27,05,46,1.60
2012,01,27,05,49,1.60
2012,01,27,08,23,1.60
2012,01,27,08,37,1.60
2012,01,27,08,38,1.60
2012,01,27,08,45,1.60
2012,01,27,08,50,1.60
2012,01,27,09,10,3.20
2012,01,27,09,11,3.20
2012,01,27,09,23,1.60
2012,01,27,09,53,3.20
2012,01,27,09,54,4.80
2012,01,27,09,55,6.40
2012,01,27,09,56,4.80
2012,01,27,09,57,3.20
2012,01,27,09,59,4.80
2012,01,27,10,00,6.40
2012,01,27,10,01,4.80
2012,01,27,10,02,3.20
2012,01,27,10,03,3.20
2012,01,27,10,04,4.80
2012,01,27,10,05,3.20
2012,01,27,10,06,6.40
2012,01,27,10,07,4.80
2012,01,27,10,08,3.20
2012,01,27,10,09,4.80
2012,01,27,10,10,4.80
2012,01,27,10,11,6.40
2012,01,27,10,12,8.10
2012,01,27,10,13,8.10
2012,01,27,10,14,3.20
2012,01,27,10,15,4.80
2012,01,27,10,16,3.20
2012,01,27,10,17,6.40
2012,01,27,10,18,8.10
2012,01,27,10,19,6.40
2012,01,27,10,20,6.40
2012,01,27,10,21,8.10
2012,01,27,10,22,8.10
2012,01,27,10,23,4.80
2012,01,27,10,24,4.80
2012,01,27,10,25,3.20
2012,01,27,10,27,3.20
2012,01,27,10,28,6.40
2012,01,27,10,29,6.40
2012,01,27,10,30,3.20
2012,01,27,10,31,1.60
2012,01,27,10,32,1.60
2012,01,27,10,33,9.60
2012,01,27,10,34,9.60
2012,01,27,10,35,6.40
2012,01,27,10,36,6.40
2012,01,27,10,37,4.80
2012,01,27,10,38,4.80
2012,01,27,10,39,4.80
2012,01,27,10,40,4.80
2012,01,27,10,41,14.50
2012,01,27,10,42,6.40
2012,01,27,10,43,8.10
2012,01,27,10,44,6.40
2012,01,27,10,45,14.50
2012,01,27,10,46,14.50
2012,01,27,10,47,8.10
2012,01,27,10,48,9.60
2012,01,27,10,49,9.60
2012,01,27,10,50,8.10
2012,01,27,10,51,11.30
2012,01,27,10,52,11.30
2012,01,27,10,53,8.10
2012,01,27,10,54,16.10
2012,01,27,10,55,14.50
2012,01,27,10,56,11.30
2012,01,27,10,57,19.30
2012,01,27,10,58,19.30
2012,01,27,10,59,17.70
2012,01,27,11,00,16.10
2012,01,27,11,01,12.90
2012,01,27,11,02,16.10
2012,01,27,11,03,16.10
2012,01,27,11,04,9.60
2012,01,27,11,05,14.50
2012,01,27,11,06,9.60
2012,01,27,11,07,9.60
2012,01,27,11,08,11.30
2012,01,27,11,09,14.50
2012,01,27,11,10,6.40
2012,01,27,11,11,11.30
2012,01,27,11,12,16.10
2012,01,27,11,13,11.30
2012,01,27,11,14,8.10
2012,01,27,11,15,17.70
2012,01,27,11,16,14.50
2012,01,27,11,17,14.50
2012,01,27,11,18,17.70
2012,01,27,11,19,17.70
2012,01,27,11,20,17.70
2012,01,27,11,21,16.10
2012,01,27,11,22,17.70
2012,01,27,11,23,14.50
2012,01,27,11,24,17.70
2012,01,27,11,25,14.50
2012,01,27,11,26,17.70
2012,01,27,11,27,12.90
2012,01,27,11,28,9.60
2012,01,27,11,29,9.60
2012,01,27,11,30,6.40
2012,01,27,11,31,9.60
2012,01,27,11,32,17.70
2012,01,27,11,33,12.90
2012,01,27,11,34,16.10
2012,01,27,11,35,8.10
2012,01,27,11,36,6.40
2012,01,27,11,37,17.70
2012,01,27,11,38,11.30
2012,01,27,11,39,9.60
2012,01,27,11,40,9.60
2012,01,27,11,41,9.60
2012,01,27,11,42,9.60
2012,01,27,11,43,11.30
2012,01,27,11,44,16.10
2012,01,27,11,45,14.50
2012,01,27,11,46,14.50
2012,01,27,11,47,9.60
2012,01,27,11,48,16.10
2012,01,27,11,49,16.10
2012,01,27,11,50,14.50
2012,01,27,11,51,17.70
2012,01,27,11,52,17.70
2012,01,27,11,53,11.30
2012,01,27,11,54,17.70
2012,01,27,11,55,16.10
2012,01,27,11,56,16.10
2012,01,27,11,57,14.50
2012,01,27,11,58,19.30
2012,01,27,11,59,19.30
2012,01,27,12,00,12.90
2012,01,27,12,01,11.30
2012,01,27,12,02,8.10
2012,01,27,12,03,6.40
2012,01,27,12,04,4.80
2012,01,27,12,05,14.50
2012,01,27,12,06,12.90
2012,01,27,12,07,8.10
2012,01,27,12,08,14.50
2012,01,27,12,09,16.10
2012,01,27,12,10,12.90
2012,01,27,12,11,11.30
2012,01,27,12,12,9.60
2012,01,27,12,13,3.20
2012,01,27,12,14,14.50
2012,01,27,12,15,8.10
2012,01,27,12,16,9.60
2012,01,27,12,17,4.80
2012,01,27,12,18,4.80
2012,01,27,12,19,11.30
2012,01,27,12,20,16.10
2012,01,27,12,21,14.50
2012,01,27,12,22,11.30
2012,01,27,12,23,20.90
2012,01,27,12,24,19.30
2012,01,27,12,25,16.10
2012,01,27,12,26,11.30
2012,01,27,12,27,14.50
2012,01,27,12,28,11.30
2012,01,27,12,29,14.50
2012,01,27,12,30,11.30
2012,01,27,12,31,8.10
2012,01,27,12,32,12.90
2012,01,27,12,33,16.10
2012,01,27,12,34,16.10
2012,01,27,12,35,12.90
2012,01,27,12,36,16.10
2012,01,27,12,37,16.10
2012,01,27,12,38,12.90
2012,01,27,12,39,11.30
2012,01,27,12,40,14.50
2012,01,27,12,41,14.50
2012,01,27,12,42,6.40
2012,01,27,12,43,8.10
2012,01,27,12,44,16.10
2012,01,27,12,45,12.90
2012,01,27,12,46,14.50
2012,01,27,12,47,11.30
2012,01,27,12,48,9.60
2012,01,27,12,49,8.10
2012,01,27,12,50,9.60
2012,01,27,12,51,14.50
2012,01,27,12,52,19.30
2012,01,27,12,53,12.90
2012,01,27,12,54,19.30
2012,01,27,12,55,8.10
2012,01,27,12,56,4.80
2012,01,27,12,57,9.60
2012,01,27,12,58,6.40
2012,01,27,12,59,4.80
2012,01,27,13,00,3.20
2012,01,27,13,01,1.60
2012,01,27,13,02,1.60
2012,01,27,13,03,3.20
2012,01,27,13,04,4.80
2012,01,27,13,05,4.80
2012,01,27,13,06,1.60
2012,01,27,13,07,4.80
2012,01,27,13,08,4.80
2012,01,27,13,09,4.80
2012,01,27,13,10,4.80
2012,01,27,13,11,4.80
2012,01,27,13,12,4.80
2012,01,27,13,13,6.40
2012,01,27,13,14,4.80
2012,01,27,13,15,3.20
2012,01,27,13,17,1.60
2012,01,27,13,18,3.20
2012,01,27,13,19,3.20
2012,01,27,13,20,3.20
2012,01,27,13,23,6.40
2012,01,27,13,24,4.80
2012,01,27,13,25,1.60
2012,01,27,13,26,1.60
2012,01,27,13,32,1.60
2012,01,27,13,33,3.20
2012,01,27,13,34,1.60
2012,01,27,13,36,1.60
2012,01,27,13,37,1.60
2012,01,27,13,38,1.60
2012,01,27,13,40,3.20
2012,01,27,13,41,1.60
2012,01,27,13,42,1.60
2012,01,27,13,45,1.60
2012,01,27,13,46,1.60
2012,01,27,13,47,1.60
2012,01,27,13,48,6.40
2012,01,27,13,49,8.10
2012,01,27,13,50,11.30
2012,01,27,13,51,6.40
2012,01,27,13,52,4.80
2012,01,27,13,53,8.10
2012,01,27,13,54,6.40
2012,01,27,13,55,6.40
2012,01,27,13,56,3.20
2012,01,27,13,57,3.20
2012,01,27,13,58,3.20
2012,01,27,13,59,6.40
2012,01,27,14,00,8.10
2012,01,27,14,01,8.10
2012,01,27,14,02,9.60
2012,01,27,14,03,6.40
2012,01,27,14,04,3.20
2012,01,27,14,05,8.10
2012,01,27,14,06,9.60
2012,01,27,14,07,8.10
2012,01,27,14,08,6.40
2012,01,27,14,09,3.20
2012,01,27,14,10,8.10
2012,01,27,14,11,6.40
2012,01,27,14,12,6.40
2012,01,27,14,13,4.80
2012,01,27,14,14,6.40
2012,01,27,14,15,8.10
2012,01,27,14,16,6.40
2012,01,27,14,17,17.70
2012,01,27,14,18,19.30
2012,01,27,14,19,17.70
2012,01,27,14,20,8.10
2012,01,27,14,21,6.40
2012,01,27,14,22,4.80
2012,01,27,14,23,6.40
2012,01,27,14,24,9.60
2012,01,27,14,25,9.60
2012,01,27,14,26,9.60
2012,01,27,14,27,11.30
2012,01,27,14,28,9.60
2012,01,27,14,29,8.10
2012,01,27,14,30,6.40
2012,01,27,14,31,4.80
2012,01,27,14,32,6.40
2012,01,27,14,33,11.30
2012,01,27,14,34,14.50
2012,01,27,14,35,4.80
2012,01,27,14,36,8.10
2012,01,27,14,37,9.60
2012,01,27,14,38,4.80
2012,01,27,14,39,4.80
2012,01,27,14,40,6.40
2012,01,27,14,41,6.40
2012,01,27,14,42,8.10
2012,01,27,14,43,12.90
2012,01,27,14,44,9.60
2012,01,27,14,45,9.60
2012,01,27,14,46,12.90
2012,01,27,14,47,17.70
2012,01,27,14,48,8.10
2012,01,27,14,49,6.40
2012,01,27,14,50,4.80
2012,01,27,14,51,4.80
2012,01,27,14,52,4.80
2012,01,27,14,53,6.40
2012,01,27,14,54,6.40
2012,01,27,14,55,6.40
2012,01,27,14,56,4.80
2012,01,27,14,57,4.80
2012,01,27,14,58,3.20
2012,01,27,14,59,9.60
2012,01,27,15,00,4.80
2012,01,27,15,01,9.60
2012,01,27,15,02,8.10
2012,01,27,15,03,4.80
2012,01,27,15,04,3.20
2012,01,27,15,05,9.60
2012,01,27,15,06,4.80
2012,01,27,15,07,3.20
2012,01,27,15,08,6.40
2012,01,27,15,09,8.10
2012,01,27,15,10,9.60
2012,01,27,15,11,4.80
2012,01,27,15,12,4.80
2012,01,27,15,13,9.60
2012,01,27,15,14,14.50
2012,01,27,15,15,14.50
2012,01,27,15,16,14.50
2012,01,27,15,17,9.60
2012,01,27,15,18,9.60
2012,01,27,15,19,11.30
2012,01,27,15,20,8.10
2012,01,27,15,21,9.60
2012,01,27,15,22,9.60
2012,01,27,15,23,9.60
2012,01,27,15,24,8.10
2012,01,27,15,25,6.40
2012,01,27,15,26,16.10
2012,01,27,15,27,11.30
2012,01,27,15,28,9.60
2012,01,27,15,29,8.10
2012,01,27,15,30,8.10
2012,01,27,15,31,8.10
2012,01,27,15,32,4.80
2012,01,27,15,33,4.80
2012,01,27,15,34,8.10
2012,01,27,15,35,9.60
2012,01,27,15,36,4.80
2012,01,27,15,37,6.40
2012,01,27,15,38,6.40
2012,01,27,15,39,8.10
2012,01,27,15,40,6.40
2012,01,27,15,41,3.20
2012,01,27,15,42,6.40
2012,01,27,15,43,9.60
2012,01,27,15,44,14.50
2012,01,27,15,45,8.10
2012,01,27,15,46,9.60
2012,01,27,15,47,14.50
2012,01,27,15,48,14.50
2012,01,27,15,49,14.50
2012,01,27,15,50,12.90
2012,01,27,15,51,16.10
2012,01,27,15,52,11.30
2012,01,27,15,53,14.50
2012,01,27,15,54,14.50
2012,01,27,15,55,9.60
2012,01,27,15,56,12.90
2012,01,27,15,57,16.10
2012,01,27,15,58,17.70
2012,01,27,15,59,16.10
2012,01,27,16,00,16.10
2012,01,27,16,01,17.70
2012,01,27,16,02,11.30
2012,01,27,16,03,9.60
2012,01,27,16,04,9.60
2012,01,27,16,05,8.10
2012,01,27,16,06,9.60
2012,01,27,16,07,11.30
2012,01,27,16,08,9.60
2012,01,27,16,09,11.30
2012,01,27,16,10,11.30
2012,01,27,16,11,8.10
2012,01,27,16,12,9.60
2012,01,27,16,13,6.40
2012,01,27,16,14,8.10
2012,01,27,16,15,6.40
2012,01,27,16,16,9.60
2012,01,27,16,17,6.40
2012,01,27,16,18,9.60
2012,01,27,16,19,4.80
2012,01,27,16,20,9.60
2012,01,27,16,21,8.10
2012,01,27,16,22,4.80
2012,01,27,16,23,8.10
2012,01,27,16,24,6.40
2012,01,27,16,25,9.60
2012,01,27,16,26,9.60
2012,01,27,16,27,4.80
2012,01,27,16,28,3.20
2012,01,27,16,29,4.80
2012,01,27,16,30,6.40
2012,01,27,16,31,6.40
2012,01,27,16,32,4.80
2012,01,27,16,33,4.80
2012,01,27,16,34,6.40
2012,01,27,16,35,8.10
2012,01,27,16,36,6.40
2012,01,27,16,37,6.40
2012,01,27,16,38,4.80
2012,01,27,16,39,6.40
2012,01,27,16,40,6.40
2012,01,27,16,41,4.80
2012,01,27,16,43,1.60
2012,01,27,16,44,4.80
2012,01,27,16,45,4.80
2012,01,27,16,46,4.80
2012,01,27,16,47,3.20
2012,01,27,16,48,3.20
2012,01,27,16,49,3.20
2012,01,27,16,50,3.20
2012,01,27,16,51,3.20
2012,01,27,16,52,4.80
2012,01,27,16,53,6.40
2012,01,27,16,54,3.20
2012,01,27,16,55,1.60
2012,01,27,16,58,4.80
2012,01,27,16,59,6.40
2012,01,27,17,00,6.40
2012,01,27,17,01,9.60
2012,01,27,17,02,11.30
2012,01,27,17,03,9.60
2012,01,27,17,04,8.10
2012,01,27,17,05,9.60
2012,01,27,17,06,6.40
2012,01,27,17,07,4.80
2012,01,27,17,08,1.60
2012,01,27,17,19,3.20
2012,01,27,17,20,3.20
2012,01,27,17,23,1.60
2012,01,27,17,48,1.60
2012,01,27,17,51,1.60
2012,01,27,18,18,1.60
2012,01,27,18,19,1.60
2012,01,27,18,26,1.60
2012,01,27,18,27,1.60
2012,01,27,18,28,1.60
2012,01,27,18,42,1.60
2012,01,27,18,43,1.60
2012,01,27,18,44,3.20
2012,01,27,18,45,3.20
2012,01,27,18,46,3.20
2012,01,27,18,47,1.60
2012,01,27,18,48,1.60
2012,01,27,19,12,1.60
2012,01,27,19,13,1.60
2012,01,27,19,14,1.60
2012,01,27,19,15,1.60
2012,01,27,19,48,1.60
2012,01,27,19,49,1.60
2012,01,27,19,50,1.60
2012,01,27,20,18,1.60
2012,01,27,20,19,3.20
2012,01,27,20,20,1.60
2012,01,27,20,21,1.60
2012,01,27,20,22,1.60
2012,01,27,20,23,1.60
2012,01,27,20,28,1.60
2012,01,27,20,37,1.60
2012,01,27,20,47,1.60
2012,01,27,20,48,3.20
2012,01,27,20,49,3.20
2012,01,27,21,16,1.60
2012,01,27,21,19,1.60
2012,01,27,21,20,1.60
2012,01,27,21,21,1.60
2012,01,27,21,34,1.60
2012,01,27,21,35,1.60
2012,01,27,21,47,3.20
2012,01,27,21,48,1.60
2012,01,27,21,49,3.20
2012,01,27,21,50,1.60
2012,01,27,22,01,1.60
2012,01,27,22,10,3.20
2012,01,27,22,11,1.60
2012,01,27,22,12,3.20
2012,01,27,22,13,3.20
2012,01,27,22,14,1.60
2012,01,27,22,15,1.60
2012,01,27,23,24,1.60
2012,01,27,23,33,1.60
